BAW6RB EGLL-KPHL

Flight info

Callsign BAW6RB
Flight time N/A
Altitude 36000
Route CPT5J CPT L9 BUCGO DCT FELCA DCT OFSOX DCT BANBA DCT LODLA DCT DOLIP DCT LIMRI/M085F370 NATF TUDEP/N0486F380 N520C TUSKY DCT LARIE Q220 RIFLE Q439 BRIGS JIIMS4
Aircraft A35K/H-SBDE1E2E3GHIJ1J3J4J5J6M1M2P2RWXYZ/LB1D1

Departure

Time N/A
Airport London Heathrow Airport (EGLL)

Arrival

Time 2026-05-05 20:40
Airport Philadelphia International Airport (KPHL)
Time Latitude Longitude Altitude Speed Heading
2026-05-05 19:07 45.23874 -64.50984 39900 ft 445 kts 231°
2026-05-05 19:07 45.21811 -64.54194 39907 ft 445 kts 231°
2026-05-05 19:07 45.17640 -64.60671 39900 ft 444 kts 231°
2026-05-05 19:08 45.13473 -64.67125 39906 ft 444 kts 231°
2026-05-05 19:08 45.09307 -64.73566 39908 ft 444 kts 231°
2026-05-05 19:09 45.05128 -64.80010 39908 ft 444 kts 231°
2026-05-05 19:09 45.00947 -64.86443 39909 ft 444 kts 231°
2026-05-05 19:10 44.96758 -64.92872 39890 ft 444 kts 231°
2026-05-05 19:10 44.92568 -64.99289 39907 ft 445 kts 231°
2026-05-05 19:11 44.88364 -65.05712 39909 ft 445 kts 230°
2026-05-05 19:11 44.84157 -65.12124 39916 ft 445 kts 230°
2026-05-05 19:12 44.79948 -65.18525 39918 ft 445 kts 230°
2026-05-05 19:12 44.75737 -65.24913 39931 ft 445 kts 230°
2026-05-05 19:13 44.71543 -65.31262 39948 ft 445 kts 230°
2026-05-05 19:13 44.67294 -65.37678 39947 ft 445 kts 230°
2026-05-05 19:14 44.63095 -65.44008 39950 ft 446 kts 230°
2026-05-05 19:14 44.58854 -65.50384 39958 ft 447 kts 230°
2026-05-05 19:15 44.54605 -65.56756 39954 ft 447 kts 230°
2026-05-05 19:15 44.50356 -65.63115 39954 ft 447 kts 230°
2026-05-05 19:16 44.46818 -65.68400 39961 ft 447 kts 230°
2026-05-05 19:16 44.41861 -65.75785 39964 ft 447 kts 230°
2026-05-05 19:17 44.38287 -65.81098 39966 ft 447 kts 230°
2026-05-05 19:17 44.34019 -65.87430 39948 ft 448 kts 230°
2026-05-05 19:18 44.29764 -65.93729 39957 ft 449 kts 229°
2026-05-05 19:18 44.25446 -66.00105 39961 ft 449 kts 229°
2026-05-05 19:19 44.21147 -66.06439 39957 ft 449 kts 229°
2026-05-05 19:19 44.16874 -66.12720 39960 ft 449 kts 229°
2026-05-05 19:20 44.12567 -66.19038 39966 ft 450 kts 229°
2026-05-05 19:20 44.08258 -66.25344 39952 ft 450 kts 229°
2026-05-05 19:21 44.03945 -66.31641 39951 ft 450 kts 229°
2026-05-05 19:21 43.99617 -66.37946 39957 ft 451 kts 229°
2026-05-05 19:22 43.95287 -66.44239 39956 ft 451 kts 229°
2026-05-05 19:22 43.90947 -66.50534 39947 ft 451 kts 229°
2026-05-05 19:23 43.86603 -66.56820 39948 ft 452 kts 229°
2026-05-05 19:23 43.82250 -66.63105 39941 ft 452 kts 229°
2026-05-05 19:24 43.77920 -66.69341 39936 ft 451 kts 229°
2026-05-05 19:24 43.73540 -66.75636 39933 ft 451 kts 229°
2026-05-05 19:25 43.69207 -66.81851 39949 ft 452 kts 229°
2026-05-05 19:25 43.64843 -66.88096 39947 ft 452 kts 229°
2026-05-05 19:26 43.60468 -66.94341 39948 ft 452 kts 229°
2026-05-05 19:26 43.56195 -67.00685 39945 ft 451 kts 233°
2026-05-05 19:27 43.52304 -67.07473 39941 ft 451 kts 234°
2026-05-05 19:27 43.48486 -67.14326 39941 ft 451 kts 234°
2026-05-05 19:28 43.44678 -67.21170 39942 ft 451 kts 234°
2026-05-05 19:28 43.40858 -67.28001 39943 ft 450 kts 234°
2026-05-05 19:29 43.37030 -67.34817 39938 ft 450 kts 234°
2026-05-05 19:29 43.33200 -67.41616 39941 ft 450 kts 234°
2026-05-05 19:30 43.29363 -67.48414 39933 ft 450 kts 234°
2026-05-05 19:30 43.25527 -67.55193 39946 ft 450 kts 234°
2026-05-05 19:31 43.21688 -67.61963 39937 ft 450 kts 233°
2026-05-05 19:31 43.17846 -67.68724 39936 ft 450 kts 233°
2026-05-05 19:32 43.14024 -67.75434 39936 ft 450 kts 233°
2026-05-05 19:32 43.10168 -67.82188 39938 ft 449 kts 233°
2026-05-05 19:33 43.06317 -67.88917 39937 ft 449 kts 233°
2026-05-05 19:33 43.02458 -67.95645 39941 ft 449 kts 233°
2026-05-05 19:34 42.98596 -68.02363 39956 ft 449 kts 233°
2026-05-05 19:35 42.92807 -68.12405 39956 ft 449 kts 233°
2026-05-05 19:35 42.88939 -68.19095 39938 ft 448 kts 233°
2026-05-05 19:36 42.85077 -68.25760 39948 ft 447 kts 233°
2026-05-05 19:36 42.81217 -68.32406 39950 ft 447 kts 233°
2026-05-05 19:37 42.77378 -68.39002 39940 ft 447 kts 233°
2026-05-05 19:37 42.73521 -68.45614 39947 ft 447 kts 233°
2026-05-05 19:38 42.69644 -68.52246 39943 ft 447 kts 233°
2026-05-05 19:38 42.65777 -68.58845 39938 ft 446 kts 233°
2026-05-05 19:39 42.61910 -68.65429 39951 ft 446 kts 233°
2026-05-05 19:39 42.58038 -68.72008 39948 ft 446 kts 233°
2026-05-05 19:40 42.54159 -68.78585 39938 ft 446 kts 233°
2026-05-05 19:40 42.50277 -68.85152 39944 ft 446 kts 233°
2026-05-05 19:41 42.46399 -68.91696 39950 ft 445 kts 233°
2026-05-05 19:41 42.42525 -68.98220 39942 ft 445 kts 233°
2026-05-05 19:42 42.38667 -69.04704 39940 ft 445 kts 233°
2026-05-05 19:42 42.34786 -69.11212 39943 ft 445 kts 232°
2026-05-05 19:43 42.30892 -69.17727 39936 ft 445 kts 232°
2026-05-05 19:43 42.27002 -69.24222 39940 ft 445 kts 232°
2026-05-05 19:44 42.23106 -69.30712 39942 ft 445 kts 232°
2026-05-05 19:44 42.19209 -69.37190 39942 ft 445 kts 232°
2026-05-05 19:45 42.15321 -69.43638 39941 ft 445 kts 232°
2026-05-05 19:45 42.11411 -69.50109 39941 ft 446 kts 232°
2026-05-05 19:46 42.07493 -69.56581 39940 ft 446 kts 232°
2026-05-05 19:46 42.03570 -69.63046 39949 ft 446 kts 232°
2026-05-05 19:47 41.99645 -69.69500 39940 ft 446 kts 232°
2026-05-05 19:47 41.95712 -69.75953 39956 ft 447 kts 232°
2026-05-05 19:48 41.91767 -69.82412 39966 ft 447 kts 232°
2026-05-05 19:48 41.87818 -69.88864 39972 ft 447 kts 232°
2026-05-05 19:49 41.83895 -69.95260 39959 ft 446 kts 232°
2026-05-05 19:49 41.80294 -70.02034 39979 ft 446 kts 237°
2026-05-05 19:50 41.76901 -70.09016 39981 ft 447 kts 238°
2026-05-05 19:50 41.73541 -70.16018 39945 ft 447 kts 238°
2026-05-05 19:51 41.70172 -70.23013 39946 ft 447 kts 238°
2026-05-05 19:51 41.66795 -70.29987 39945 ft 447 kts 238°
2026-05-05 19:52 41.63407 -70.36961 39969 ft 447 kts 238°
2026-05-05 19:52 41.60017 -70.43921 39972 ft 447 kts 238°
2026-05-05 19:53 41.56619 -70.50883 39972 ft 447 kts 238°
2026-05-05 19:53 41.53221 -70.57829 39970 ft 448 kts 238°
2026-05-05 19:54 41.49807 -70.64792 39969 ft 448 kts 238°
2026-05-05 19:54 41.46390 -70.71746 39971 ft 448 kts 237°
2026-05-05 19:55 41.42989 -70.78651 39968 ft 448 kts 237°
2026-05-05 19:55 41.39823 -70.85784 39970 ft 447 kts 246°
2026-05-05 19:56 41.37295 -70.93361 39960 ft 448 kts 247°
2026-05-05 19:56 41.34877 -71.01006 39954 ft 448 kts 248°
2026-05-05 19:57 41.32466 -71.08648 39947 ft 448 kts 247°
2026-05-05 19:57 41.30031 -71.16297 39941 ft 448 kts 247°
2026-05-05 19:58 41.27588 -71.23926 39947 ft 448 kts 247°
2026-05-05 19:58 41.25139 -71.31550 39948 ft 448 kts 247°
2026-05-05 19:59 41.22693 -71.39165 39952 ft 448 kts 247°
2026-05-05 19:59 41.20243 -71.46775 39952 ft 448 kts 247°
2026-05-05 20:00 41.17789 -71.54375 39951 ft 448 kts 247°
2026-05-05 20:00 41.15338 -71.61928 39952 ft 447 kts 247°
2026-05-05 20:01 41.12829 -71.69479 39950 ft 447 kts 246°
2026-05-05 20:01 41.10298 -71.77042 39953 ft 449 kts 246°
2026-05-05 20:02 41.08178 -71.83378 39934 ft 449 kts 246°
2026-05-05 20:02 41.05662 -71.90900 39934 ft 449 kts 246°
2026-05-05 20:03 41.03116 -71.98496 39934 ft 448 kts 247°
2026-05-05 20:03 41.00520 -72.05983 39935 ft 448 kts 245°
2026-05-05 20:04 40.97879 -72.13385 39936 ft 448 kts 245°
2026-05-05 20:04 40.95216 -72.20859 39934 ft 449 kts 245°
2026-05-05 20:05 40.92485 -72.28277 39934 ft 449 kts 242°
2026-05-05 20:05 40.88722 -72.34863 39936 ft 451 kts 229°
2026-05-05 20:06 40.84321 -72.40790 39936 ft 452 kts 227°
2026-05-05 20:06 40.79746 -72.46517 39947 ft 455 kts 223°
2026-05-05 20:07 40.74904 -72.51842 39959 ft 456 kts 222°
2026-05-05 20:07 40.69999 -72.57156 39949 ft 456 kts 223°
2026-05-05 20:08 40.65406 -72.62887 39951 ft 454 kts 227°
2026-05-05 20:08 40.60911 -72.68743 39949 ft 455 kts 227°
2026-05-05 20:09 40.56420 -72.74631 39949 ft 455 kts 227°
2026-05-05 20:09 40.51928 -72.80499 39952 ft 455 kts 227°
2026-05-05 20:10 40.47310 -72.86205 39940 ft 456 kts 225°
2026-05-05 20:10 40.42591 -72.91803 39947 ft 458 kts 225°
2026-05-05 20:11 40.37875 -72.97416 39935 ft 457 kts 225°
2026-05-05 20:11 40.33182 -73.03037 39938 ft 457 kts 226°
2026-05-05 20:12 40.28496 -73.08668 39938 ft 457 kts 226°
2026-05-05 20:12 40.23839 -73.14252 39936 ft 458 kts 226°
2026-05-05 20:13 40.19130 -73.19883 39940 ft 459 kts 225°
2026-05-05 20:13 40.14415 -73.25500 39937 ft 458 kts 225°
2026-05-05 20:14 40.09702 -73.31117 39931 ft 459 kts 226°
2026-05-05 20:14 40.04974 -73.36733 39943 ft 459 kts 226°
2026-05-05 20:15 40.00260 -73.42312 39665 ft 454 kts 226°
2026-05-05 20:15 39.97922 -73.45076 39042 ft 453 kts 226°
2026-05-05 20:15 39.95583 -73.47840 38359 ft 454 kts 226°
2026-05-05 20:15 39.93242 -73.50606 37487 ft 456 kts 226°
2026-05-05 20:16 39.90912 -73.53438 36501 ft 459 kts 229°
2026-05-05 20:16 39.88766 -73.56540 35548 ft 462 kts 233°
2026-05-05 20:16 39.86679 -73.59751 34733 ft 466 kts 234°
2026-05-05 20:16 39.84600 -73.63032 34463 ft 475 kts 235°
2026-05-05 20:17 39.82513 -73.66355 33902 ft 473 kts 236°
2026-05-05 20:17 39.80434 -73.69673 33088 ft 473 kts 236°
2026-05-05 20:17 39.78352 -73.72992 32291 ft 473 kts 235°
2026-05-05 20:17 39.76266 -73.76304 31489 ft 473 kts 235°
2026-05-05 20:18 39.74176 -73.79614 30654 ft 474 kts 234°
2026-05-05 20:18 39.72086 -73.82913 29994 ft 471 kts 234°
2026-05-05 20:18 39.70007 -73.86185 29326 ft 467 kts 234°
2026-05-05 20:18 39.67957 -73.89409 28716 ft 461 kts 234°
2026-05-05 20:19 39.65925 -73.92601 28141 ft 456 kts 234°
2026-05-05 20:19 39.63911 -73.95762 27521 ft 451 kts 234°
2026-05-05 20:19 39.61924 -73.98881 26950 ft 447 kts 234°
2026-05-05 20:19 39.59953 -74.01976 26361 ft 442 kts 234°
2026-05-05 20:20 39.58004 -74.05035 25797 ft 438 kts 233°
2026-05-05 20:20 39.56068 -74.08065 25224 ft 434 kts 233°
2026-05-05 20:20 39.54251 -74.11150 24668 ft 428 kts 240°
2026-05-05 20:20 39.52985 -74.14588 24119 ft 419 kts 254°
2026-05-05 20:21 39.52467 -74.18251 23568 ft 412 kts 268°
2026-05-05 20:21 39.52463 -74.21941 22955 ft 407 kts 272°
2026-05-05 20:21 39.52548 -74.25541 22407 ft 402 kts 272°
2026-05-05 20:21 39.52633 -74.29131 21869 ft 396 kts 272°
2026-05-05 20:22 39.52710 -74.32675 21334 ft 391 kts 271°
2026-05-05 20:22 39.52780 -74.36168 20809 ft 386 kts 271°
2026-05-05 20:22 39.52847 -74.39625 20264 ft 382 kts 271°
2026-05-05 20:22 39.52910 -74.43038 19731 ft 377 kts 271°
2026-05-05 20:23 39.52971 -74.46421 19185 ft 374 kts 271°
2026-05-05 20:23 39.53029 -74.49771 18664 ft 370 kts 270°
2026-05-05 20:23 39.53087 -74.53090 18123 ft 367 kts 270°
2026-05-05 20:23 39.53142 -74.56377 17526 ft 363 kts 270°
2026-05-05 20:24 39.53196 -74.59641 17025 ft 364 kts 270°
2026-05-05 20:24 39.53249 -74.62905 16539 ft 359 kts 270°
2026-05-05 20:24 39.53300 -74.66110 16033 ft 353 kts 270°
2026-05-05 20:24 39.53350 -74.69271 15517 ft 348 kts 270°
2026-05-05 20:25 39.53398 -74.72393 14973 ft 344 kts 270°
2026-05-05 20:25 39.53445 -74.75471 14453 ft 340 kts 270°
2026-05-05 20:25 39.53496 -74.78513 13933 ft 335 kts 270°
2026-05-05 20:25 39.53543 -74.81511 13380 ft 331 kts 269°
2026-05-05 20:26 39.53589 -74.84470 12840 ft 326 kts 269°
2026-05-05 20:26 39.53634 -74.87387 12323 ft 321 kts 269°
2026-05-05 20:26 39.53677 -74.90252 11802 ft 316 kts 269°
2026-05-05 20:26 39.53780 -74.93071 11492 ft 308 kts 274°
2026-05-05 20:27 39.54311 -74.95692 11362 ft 298 kts 288°
2026-05-05 20:27 39.55401 -74.97935 11228 ft 293 kts 304°
2026-05-05 20:27 39.56908 -74.99669 11096 ft 287 kts 315°
2026-05-05 20:27 39.58496 -75.01147 10976 ft 275 kts 316°
2026-05-05 20:28 39.60027 -75.02544 10811 ft 263 kts 316°
2026-05-05 20:28 39.61503 -75.03905 10704 ft 260 kts 315°
2026-05-05 20:28 39.63022 -75.05333 10644 ft 276 kts 315°
2026-05-05 20:28 39.64588 -75.06801 10567 ft 277 kts 316°
2026-05-05 20:29 39.66178 -75.08175 10083 ft 284 kts 323°
2026-05-05 20:29 39.68118 -75.08947 9551 ft 304 kts 348°
2026-05-05 20:29 39.70252 -75.08795 9145 ft 309 kts 360°
2026-05-05 20:29 39.72369 -75.08205 9001 ft 318 kts 14°
2026-05-05 20:30 39.74235 -75.06646 8659 ft 324 kts 41°
2026-05-05 20:30 39.75777 -75.04501 8122 ft 328 kts 45°
2026-05-05 20:30 39.77250 -75.02319 7467 ft 324 kts 45°
2026-05-05 20:30 39.78740 -75.00136 6754 ft 322 kts 45°
2026-05-05 20:31 39.80229 -74.97979 6033 ft 319 kts 45°
2026-05-05 20:31 39.81710 -74.95854 5343 ft 315 kts 46°
2026-05-05 20:31 39.83118 -74.93704 4821 ft 314 kts 55°
2026-05-05 20:31 39.84006 -74.91130 4336 ft 311 kts 76°
2026-05-05 20:32 39.84750 -74.88494 3857 ft 312 kts 63°
2026-05-05 20:32 39.86129 -74.86392 3644 ft 301 kts 36°
2026-05-05 20:32 39.87963 -74.85274 3478 ft 284 kts
2026-05-05 20:32 39.89866 -74.85131 3420 ft 269 kts 352°
2026-05-05 20:33 39.91737 -74.85296 3381 ft 268 kts 350°
2026-05-05 20:33 39.93483 -74.85954 3331 ft 256 kts 323°
2026-05-05 20:33 39.94621 -74.87556 3287 ft 233 kts 286°
2026-05-05 20:33 39.94741 -74.89527 3219 ft 210 kts 249°
2026-05-05 20:34 39.94144 -74.91160 3151 ft 192 kts 238°
2026-05-05 20:34 39.93565 -74.92687 3114 ft 188 kts 242°
2026-05-05 20:34 39.93110 -74.94293 3087 ft 190 kts 249°
2026-05-05 20:34 39.92762 -74.95953 3061 ft 190 kts 251°
2026-05-05 20:35 39.92441 -74.97600 3027 ft 190 kts 251°
2026-05-05 20:35 39.92117 -74.99260 3007 ft 188 kts 250°
2026-05-05 20:35 39.91793 -75.00906 3003 ft 188 kts 250°
2026-05-05 20:35 39.91467 -75.02550 2974 ft 186 kts 250°
2026-05-05 20:36 39.91140 -75.04173 2761 ft 184 kts 250°
2026-05-05 20:36 39.90816 -75.05787 2507 ft 184 kts 249°
2026-05-05 20:36 39.90498 -75.07380 2314 ft 179 kts 250°
2026-05-05 20:36 39.90189 -75.08937 2054 ft 177 kts 250°
2026-05-05 20:37 39.89883 -75.10470 1801 ft 172 kts 250°
2026-05-05 20:37 39.89688 -75.11452 1662 ft 165 kts 250°
2026-05-05 20:37 39.89324 -75.13290 1377 ft 146 kts 247°
2026-05-05 20:37 39.89077 -75.14516 1216 ft 135 kts 246°
2026-05-05 20:38 39.88846 -75.15664 1033 ft 127 kts 249°
2026-05-05 20:38 39.88628 -75.16750 880 ft 123 kts 249°
2026-05-05 20:38 39.88423 -75.17829 718 ft 121 kts 248°
2026-05-05 20:38 39.88232 -75.18892 526 ft 119 kts 247°
2026-05-05 20:39 39.88008 -75.19940 402 ft 122 kts 248°
2026-05-05 20:39 39.87791 -75.20956 269 ft 125 kts 248°
2026-05-05 20:39 39.87571 -75.22053 111 ft 127 kts 249°
2026-05-05 20:39 39.87359 -75.23122 37 ft 120 kts 252°
2026-05-05 20:40 39.87171 -75.24057 31 ft 79 kts 255°
2026-05-05 20:40 39.87063 -75.24583 31 ft 44 kts 256°
2026-05-05 20:40 39.87034 -75.24768 31 ft 13 kts 277°
2026-05-05 20:40 39.87064 -75.24816 31 ft 7 kts 339°
2026-05-05 20:41 39.87150 -75.24848 31 ft 16 kts 344°
2026-05-05 20:41 39.87234 -75.24878 31 ft 10 kts 345°
2026-05-05 20:41 39.87285 -75.24898 31 ft 9 kts 336°
2026-05-05 20:41 39.87352 -75.24942 31 ft 11 kts 340°
2026-05-05 20:42 39.87395 -75.24959 31 ft 5 kts 344°
2026-05-05 20:42 39.87415 -75.24966 31 ft 2 kts 345°
2026-05-05 20:42 39.87419 -75.24968 31 ft 0 kts 345°
2026-05-05 20:42 39.87420 -75.24968 31 ft 0 kts 345°